| time (UTC) | temp F | wind direction | speed MPH | gust MPH | rain 1hr in | rain 24hr in | rain mn in | humidity % | barometer mb |
| 20260508184524 | 70 | 11 | 1.0 | 6.0 | 0.00 | 0.00 | 0.00 | 79 | 1014.2 |
| 20260508183020 | 70 | 22 | 1.0 | 4.0 | 0.00 | 0.00 | 0.00 | 79 | 1013.6 |
| 20260508181525 | 71 | 135 | 0.0 | 4.0 | 0.00 | 0.00 | 0.00 | 79 | 1013.6 |
| 20260508180028 | 72 | 195 | 0.0 | 1.0 | 0.00 | 0.00 | 0.00 | 78 | 1013.9 |
| 20260508174530 | 72 | 27 | 1.0 | 2.0 | 0.00 | 0.00 | 0.00 | 77 | 1014.0 |
| 20260508173019 | 73 | 90 | 0.0 | 2.0 | 0.00 | 0.00 | 0.00 | 77 | 1014.5 |
| 20260508171531 | 74 | 355 | 0.0 | 3.0 | 0.00 | 0.00 | 0.00 | 75 | 1014.5 |
| 20260508170027 | 74 | 101 | 2.0 | 6.0 | 0.00 | 0.00 | 0.00 | 74 | 1014.1 |
| 20260508164510 | 73 | 59 | 0.0 | 2.0 | 0.00 | 0.00 | 0.00 | 76 | 1014.2 |
| 20260508163013 | 73 | 107 | 0.0 | 3.0 | 0.00 | 0.00 | 0.00 | 76 | 1014.5 |
| 20260508161530 | 74 | 86 | 0.0 | 2.0 | 0.00 | 0.04 | 0.00 | 75 | 1014.7 |
| 20260508160027 | 75 | 143 | 0.0 | 1.0 | 0.00 | 0.04 | 0.00 | 73 | 1014.8 |
| 20260508154526 | 76 | 120 | 1.0 | 4.0 | 0.00 | 0.04 | 0.00 | 71 | 1014.7 |
| 20260508153011 | 76 | 118 | 2.0 | 4.0 | 0.00 | 0.04 | 0.00 | 71 | 1014.4 |
| 20260508151515 | 74 | 36 | 1.0 | 3.0 | 0.00 | 0.05 | 0.00 | 73 | 1014.4 |
| 20260508150023 | 72 | 153 | 1.0 | 6.0 | 0.00 | 0.05 | 0.00 | 76 | 1014.5 |
| 20260508144537 | 72 | 79 | 1.0 | 2.0 | 0.00 | 0.05 | 0.00 | 75 | 1014.7 |
| 20260508143036 | 71 | 211 | 0.0 | 4.0 | 0.00 | 0.05 | 0.00 | 76 | 1014.7 |
| 20260508141520 | 69 | 18 | 1.0 | 6.0 | 0.00 | 0.05 | 0.00 | 78 | 1014.7 |
| 20260508140019 | 67 | 60 | 1.0 | 4.0 | 0.00 | 0.05 | 0.00 | 80 | 1014.9 |
| 20260508134522 | 67 | 259 | 0.0 | 2.0 | 0.00 | 0.05 | 0.00 | 81 | 1015.1 |
| 20260508133028 | 66 | 353 | 0.0 | 1.0 | 0.00 | 0.06 | 0.00 | 81 | 1015.2 |
| 20260508131529 | 66 | 113 | 0.0 | 3.0 | 0.00 | 0.06 | 0.00 | 82 | 1015.0 |
| 20260508130017 | 66 | 349 | 0.0 | 3.0 | 0.00 | 0.06 | 0.00 | 81 | 1015.0 |
| 20260508124518 | 66 | 122 | 0.0 | 4.0 | 0.00 | 0.06 | 0.00 | 82 | 1015.0 |
| 20260508123028 | 65 | 104 | 1.0 | 3.0 | 0.00 | 0.06 | 0.00 | 82 | 1015.1 |
| 20260508121526 | 65 | 41 | 1.0 | 4.0 | 0.00 | 0.06 | 0.00 | 82 | 1015.1 |
| 20260508120027 | 65 | 143 | 0.0 | 2.0 | 0.00 | 0.06 | 0.00 | 82 | 1015.2 |
| 20260508114529 | 65 | 163 | 1.0 | 4.0 | 0.00 | 0.06 | 0.00 | 81 | 1015.2 |
| 20260508113030 | 66 | 48 | 2.0 | 5.0 | 0.00 | 0.06 | 0.00 | 80 | 1015.3 |
| 20260508111526 | 67 | 288 | 0.0 | 2.0 | 0.00 | 0.06 | 0.00 | 79 | 1015.5 |
| 20260508110027 | 67 | 309 | 0.0 | 1.0 | 0.00 | 0.06 | 0.00 | 79 | 1015.1 |
| 20260508104532 | 66 | 262 | 0.0 | 1.0 | 0.00 | 0.06 | 0.00 | 79 | 1014.6 |
| 20260508103017 | 66 | 51 | 0.0 | 1.0 | 0.00 | 0.06 | 0.00 | 80 | 1014.1 |
| 20260508101530 | 66 | 29 | 1.0 | 2.0 | 0.00 | 0.06 | 0.00 | 80 | 1013.8 |
| 20260508100034 | 66 | 123 | 0.0 | 3.0 | 0.00 | 0.06 | 0.00 | 80 | 1013.5 |
| 20260508094527 | 66 | 150 | 0.0 | 3.0 | 0.00 | 0.06 | 0.00 | 80 | 1013.7 |
| 20260508093028 | 66 | 319 | 0.0 | 2.0 | 0.00 | 0.06 | 0.00 | 80 | 1013.8 |
| 20260508091521 | 66 | 83 | 0.0 | 1.0 | 0.00 | 0.06 | 0.00 | 81 | 1013.7 |
| 20260508090030 | 66 | 354 | 1.0 | 3.0 | 0.00 | 0.06 | 0.00 | 81 | 1013.9 |
| 20260508084526 | 66 | 244 | 0.0 | 2.0 | 0.00 | 0.06 | 0.00 | 81 | 1013.7 |
| 20260508083037 | 66 | 257 | 0.0 | 1.0 | 0.00 | 0.06 | 0.00 | 81 | 1014.0 |
| 20260508081516 | 66 | 17 | 0.0 | 3.0 | 0.00 | 0.06 | 0.00 | 82 | 1013.8 |
| 20260508080020 | 66 | 345 | 0.0 | 2.0 | 0.00 | 0.06 | 0.00 | 82 | 1014.1 |
| 20260508074514 | 66 | 54 | 1.0 | 5.0 | 0.00 | 0.06 | 0.00 | 82 | 1013.8 |
| 20260508073008 | 66 | 347 | 1.0 | 3.0 | 0.00 | 0.06 | 0.00 | 82 | 1013.8 |
| 20260508050018 | 68 | 72 | 0.0 | 2.0 | 0.00 | 0.06 | 0.00 | 81 | 1014.6 |
| 20260508044523 | 69 | 290 | 0.0 | 3.0 | 0.00 | 0.06 | 0.06 | 80 | 1014.7 |
| 20260508043030 | 69 | 266 | 1.0 | 2.0 | 0.00 | 0.06 | 0.06 | 79 | 1014.7 |
| 20260508041526 | 70 | 282 | 0.0 | 2.0 | 0.00 | 0.06 | 0.06 | 79 | 1015.1 |
| 20260508040010 | 70 | 299 | 0.0 | 3.0 | 0.00 | 0.06 | 0.06 | 79 | 1015.1 |
| 20260508034523 | 70 | 138 | 0.0 | 3.0 | 0.00 | 0.06 | 0.06 | 79 | 1015.3 |
| 20260508033020 | 70 | 327 | 1.0 | 2.0 | 0.00 | 0.06 | 0.06 | 78 | 1015.0 |
| 20260508031526 | 71 | 256 | 0.0 | 2.0 | 0.00 | 0.06 | 0.06 | 78 | 1015.1 |
| 20260508030005 | 71 | 275 | 0.0 | 2.0 | 0.00 | 0.06 | 0.06 | 78 | 1014.9 |
| 20260508024513 | 71 | 57 | 0.0 | 2.0 | 0.00 | 0.06 | 0.06 | 78 | 1015.1 |
| 20260508023015 | 72 | 347 | 1.0 | 2.0 | 0.00 | 0.06 | 0.06 | 78 | 1014.9 |
| 20260508021521 | 72 | 87 | 0.0 | 2.0 | 0.00 | 0.06 | 0.06 | 78 | 1014.8 |
| 20260508020024 | 73 | 290 | 1.0 | 3.0 | 0.00 | 0.06 | 0.06 | 77 | 1014.6 |
| 20260508014510 | 73 | 304 | 1.0 | 2.0 | 0.00 | 0.06 | 0.06 | 77 | 1014.5 |
| 20260508013015 | 73 | 295 | 0.0 | 2.0 | 0.00 | 0.06 | 0.06 | 77 | 1014.3 |
| 20260508011520 | 74 | 311 | 0.0 | 3.0 | 0.00 | 0.06 | 0.06 | 77 | 1014.0 |
| 20260508010029 | 74 | 313 | 0.0 | 1.0 | 0.00 | 0.06 | 0.06 | 77 | 1013.6 |
| 20260508004536 | 75 | 313 | 0.0 | 2.0 | 0.00 | 0.06 | 0.06 | 76 | 1013.5 |
| 20260508003008 | 75 | 304 | 1.0 | 2.0 | 0.00 | 0.06 | 0.06 | 75 | 1013.4 |
| 20260508001515 | 76 | 297 | 0.0 | 3.0 | 0.00 | 0.06 | 0.06 | 75 | 1013.6 |
| 20260508000020 | 76 | 328 | 1.0 | 4.0 | 0.00 | 0.06 | 0.06 | 74 | 1013.6 |
| 20260507234530 | 76 | 339 | 0.0 | 3.0 | 0.00 | 0.06 | 0.06 | 74 | 1013.6 |
| 20260507233033 | 77 | 37 | 1.0 | 3.0 | 0.00 | 0.06 | 0.06 | 73 | 1013.3 |
| 20260507231513 | 77 | 302 | 0.0 | 4.0 | 0.00 | 0.06 | 0.06 | 73 | 1013.5 |
| 20260507230019 | 77 | 256 | 0.0 | 4.0 | 0.00 | 0.06 | 0.06 | 73 | 1013.3 |
| 20260507224525 | 78 | 309 | 0.0 | 2.0 | 0.00 | 0.06 | 0.06 | 72 | 1013.3 |
| 20260507223012 | 78 | 328 | 0.0 | 3.0 | 0.00 | 0.06 | 0.06 | 72 | 1013.2 |
| 20260507221509 | 79 | 342 | 0.0 | 1.0 | 0.00 | 0.06 | 0.06 | 72 | 1013.1 |
| 20260507220014 | 79 | 303 | 1.0 | 5.0 | 0.00 | 0.06 | 0.06 | 72 | 1013.0 |
| 20260507214524 | 79 | 319 | 0.0 | 2.0 | 0.00 | 0.06 | 0.06 | 71 | 1012.9 |
| 20260507213023 | 79 | 292 | 0.0 | 1.0 | 0.00 | 0.06 | 0.06 | 71 | 1013.1 |
| 20260507211510 | 79 | 302 | 1.0 | 4.0 | 0.00 | 0.06 | 0.06 | 70 | 1013.1 |
| 20260507210011 | 80 | 50 | 0.0 | 1.0 | 0.00 | 0.06 | 0.06 | 70 | 1013.0 |
| 20260507204514 | 80 | 67 | 1.0 | 4.0 | 0.00 | 0.06 | 0.06 | 70 | 1013.0 |
| 20260507203020 | 80 | 1 | 0.0 | 2.0 | 0.00 | 0.06 | 0.06 | 70 | 1013.0 |
| 20260507201526 | 80 | 322 | 0.0 | 2.0 | 0.00 | 0.06 | 0.06 | 70 | 1013.1 |
| 20260507200009 | 81 | 95 | 0.0 | 3.0 | 0.00 | 0.06 | 0.06 | 68 | 1013.2 |
| 20260507194514 | 81 | 311 | 0.0 | 2.0 | 0.00 | 0.06 | 0.06 | 68 | 1013.3 |
| 20260507193021 | 80 | 81 | 0.0 | 2.0 | 0.00 | 0.06 | 0.06 | 72 | 1013.4 |
| 20260507191527 | 79 | 167 | 1.0 | 3.0 | 0.00 | 0.06 | 0.06 | 71 | 1013.6 |
| 20260507190024 | 78 | 90 | 0.0 | 2.0 | 0.00 | 0.06 | 0.06 | 74 | 1013.5 |